SCP
1 1 1 1 1 1 0 0 0 0 0 0 0 0 0 0 0 0 0 0 1 1 1 2 2 1 1 1 2 2 2 2 2 1 1 1 1 1 1 1 1 1 0 0 0 0 0 0 0
1 1 1 1 1 1 0 0 0 0 0 0 0 0 0 0 0 0 0 0 0 1 1 2 3 2 1 1 1 2 2 2 2 1 1 1 1 1 1 1 1 1 0 0 0 0 0 0 0
1 1 1 1 1 1 0 0 0 0 0 0 0 1 0 0 0 0 0 0 0 1 1 2 3 2 2 2 2 2 2 2 1 1 1 1 1 1 1 1 1 1 0 0 0 0 0 0 0
2 1 1 1 1 1 1 0 0 0 0 0 0 1 1 1 0 0 0 0 0 1 1 1 2 3 3 3 2 2 2 2 1 1 1 1 1 1 1 1 1 1 0 0 1 1 0 0 0
2 2 1 1 1 1 0 0 0 0 0 1 0 0 0 0 0 0 0 0 1 1 1 1 2 2 3 3 2 2 2 2 1 1 1 1 1 1 1 1 1 1 1 1 1 1 1 1 0
1 2 1 1 1 0 0 0 0 0 0 0 0 0 0 0 0 0 1 1 1 1 1 1 1 1 2 2 2 2 2 2 2 2 1 1 1 1 1 1 1 1 1 1 1 1 1 1 1
1 1 1 1 0 0 0 0 0 0 0 0 0 0 0 0 0 1 1 1 1 1 0 0 0 1 1 1 1 2 2 2 2 2 2 1 1 1 1 1 1 1 1 1 1 1 1 1 1
1 1 1 1 0 0 0 0 0 0 0 0 0 0 0 0 0 1 1 1 1 1 0 0 0 0 0 0 1 1 2 2 2 2 1 1 1 1 1 1 1 1 1 1 1 1 1 1 1
1 1 1 0 0 0 0 0 0 0 0 0 0 0 0 0 1 1 1 2 1 1 1 0 0 0 0 0 1 1 1 1 1 1 1 1 1 1 1 1 1 1 1 1 1 1 1 2 2
1 1 0 0 0 0 0 0 0 0 0 0 0 0 1 1 1 1 1 2 2 1 1 1 0 0 0 0 0 1 1 1 1 1 1 1 1 1 1 1 1 1 1 1 1 1 2 2 2
1 1 0 0 0 0 0 0 0 0 0 0 0 1 1 1 1 1 2 2 3 2 1 1 1 1 0 0 1 1 1 0 0 0 1 1 1 1 1 1 1 1 1 1 1 1 1 1 1
1 1 0 0 0 0 0 0 0 0 0 0 1 1 1 1 1 1 2 3 2 1 1 1 1 1 1 1 1 1 1 0 0 0 1 1 1 1 1 1 1 1 2 2 2 2 1 1 1
1 0 0 0 0 0 0 0 0 0 0 0 1 1 1 1 1 2 2 3 2 1 1 1 1 1 1 1 1 1 1 0 0 0 1 1 1 1 1 1 1 2 2 2 2 2 2 1 1
0 0 0 0 0 0 0 0 0 0 0 0 1 1 1 1 1 2 2 2 2 1 1 1 1 1 1 1 1 1 1 1 0 0 0 0 1 1 1 1 1 2 2 2 2 2 2 2 1
0 0 0 0 0 0 0 0 0 0 0 1 1 1 1 1 1 2 2 2 2 2 2 1 1 1 1 1 1 1 1 1 0 0 0 0 1 1 1 1 1 1 2 2 2 2 2 2 2
0 0 0 0 0 0 0 0 1 1 1 1 1 1 1 1 1 1 1 1 1 1 1 1 1 1 1 1 1 1 1 1 0 0 1 1 1 1 1 1 1 1 1 2 2 2 2 2 2
0 0 0 0 0 0 0 1 1 1 2 1 1 1 1 1 1 1 1 1 1 1 1 1 1 1 1 1 1 1 1 1 1 1 1 1 1 1 1 1 1 1 1 1 1 1 2 2 2
0 0 0 0 0 0 0 1 1 2 2 2 2 1 1 1 1 1 1 1 1 1 1 1 1 1 1 1 1 1 1 1 1 1 1 1 1 1 1 1 1 1 1 1 1 1 1 2 2
0 0 0 0 0 0 0 1 1 2 2 2 2 2 1 1 1 2 2 1 1 1 2 2 2 2 1 1 1 1 1 1 1 1 1 1 1 1 1 1 1 1 1 1 1 1 1 1 1
0 0 0 0 1 1 1 1 1 1 1 1 1 1 1 1 2 2 2 1 1 2 2 3 2 2 1 1 1 1 1 1 1 1 1 1 1 1 1 1 2 1 1 1 1 2 1 1 1
0 0 0 1 1 1 1 1 1 2 2 1 1 1 2 2 2 2 2 1 1 2 2 2 2 2 1 1 1 1 1 1 1 1 2 2 2 2 2 2 2 1 1 1 2 2 2 2 2
0 0 0 1 1 1 1 1 1 2 2 1 1 1 2 2 3 2 2 1 1 1 2 2 2 2 2 2 2 2 2 2 2 2 2 2 2 2 2 2 1 1 1 2 2 2 2 2 2
0 0 1 1 1 1 1 1 1 1 2 2 1 1 2 2 3 3 2 2 2 2 2 2 2 2 2 2 2 2 2 2 2 2 2 2 2 2 2 2 2 2 2 2 2 3 3 3 3
0 0 1 1 0 0 1 1 1 1 2 2 1 1 2 2 3 4 3 3 3 2 2 3 3 2 2 3 3 3 2 2 2 2 2 3 3 3 3 2 2 2 2 3 3 3 3 3 3
0 0 0 0 0 0 1 1 1 1 2 2 1 1 2 3 4 4 4 4 3 3 3 4 5 5 4 4 4 4 3 2 2 3 3 3 3 3 3 3 3 3 3 3 4 4 4 4 4
0 0 0 0 0 0 1 1 1 2 2 1 1 1 2 3 4 4 4 3 3 3 4 5 6 6 6 5 4 4 4 3 3 3 3 3 3 4 4 4 3 3 3 4 4 4 4 5 5
0 0 0 0 0 1 1 1 2 2 1 1 1 2 2 3 4 4 4 3 3 3 4 4 5 6 5 5 5 5 5 5 4 4 4 4 4 4 4 4 3 2 3 4 4 5 5 5 6
0 0 0 0 0 1 1 1 2 2 2 1 2 2 2 3 3 4 3 3 3 3 3 4 5 5 6 6 7 7 6 6 5 4 4 4 5 5 4 3 2 2 3 4 4 5 5 6 6
0 0 0 0 0 0 1 1 2 2 2 2 2 2 2 3 3 3 3 3 3 3 4 6 7 7 7 7 7 7 7 6 4 4 4 4 5 4 4 3 2 2 3 4 4 4 5 5 5
0 0 0 0 0 0 1 2 2 2 2 2 2 2 2 3 3 3 3 3 3 4 6 8 8 7 8 8 8 8 7 6 4 4 4 4 4 4 3 2 2 2 3 3 3 3 4 4 4
Wind_Speed
10 8 4 4 5 1 6 5 4 4 4 5 4 3 5 7 7 6 6 6 5 7 8 9 7 8 10 10 9 9 9 9 9 9 9 9 8 8 8 8 8 7 7 7 7 7 8 8 7
7 5 5 5 3 4 7 6 6 6 5 4 4 3 4 7 7 6 6 6 6 7 8 8 9 10 11 10 9 9 9 9 9 9 9 9 8 8 8 8 8 7 7 6 6 6 6 7 6
6 6 5 3 3 6 7 7 6 6 4 2 3 4 5 6 6 5 7 7 7 7 8 11 9 9 9 9 8 8 8 8 9 9 8 8 8 7 7 7 7 7 7 6 5 5 5 6 6
5 6 5 1 6 7 5 5 4 3 4 3 3 5 6 6 4 6 8 7 8 8 8 11 9 9 8 9 8 8 7 8 8 8 8 7 7 6 6 6 6 5 6 6 5 5 5 5 5
5 4 2 3 7 6 5 4 2 3 4 4 3 5 7 6 7 8 8 7 7 8 8 11 9 9 8 8 8 7 7 7 7 7 7 6 6 5 5 5 5 5 4 4 4 4 4 4 5
5 3 1 6 7 5 4 3 2 4 4 4 3 5 7 6 6 7 7 6 7 8 8 10 10 8 8 7 7 7 7 7 7 6 6 5 5 4 4 4 4 4 3 4 4 4 4 4 4
4 2 3 5 6 6 5 3 3 3 3 4 2 4 7 6 6 7 7 7 7 7 7 7 9 10 9 7 7 7 6 6 6 6 5 4 4 4 4 3 3 3 2 2 3 3 4 4 4
4 3 2 4 5 7 5 3 3 3 4 4 1 2 6 8 8 8 8 7 7 7 6 6 6 6 7 8 8 6 6 5 5 5 4 4 5 5 5 5 3 2 2 2 2 3 3 4 5
6 3 5 7 6 5 3 2 3 2 4 4 2 4 8 12 10 9 8 8 7 6 6 5 6 6 5 5 7 7 8 6 6 6 5 5 3 4 5 3 3 2 2 3 3 3 4 4 6
4 3 7 6 5 4 2 2 2 2 4 4 5 7 10 11 10 9 8 8 8 6 6 5 5 5 4 3 5 3 4 5 3 2 3 3 2 1 1 5 4 3 3 4 4 5 7 7 4
2 3 5 4 4 3 2 2 0 1 1 2 5 9 11 11 9 8 7 7 7 6 5 6 5 3 3 3 3 2 2 3 3 3 2 1 1 2 2 2 4 4 4 3 4 5 3 3 2
3 3 4 4 4 4 2 1 1 0 3 4 5 10 11 10 9 8 7 7 7 6 6 5 5 4 3 2 3 3 3 2 2 3 2 1 1 1 0 1 1 1 1 1 2 1 1 2 2
4 3 3 4 3 2 1 0 0 2 3 5 7 10 10 9 9 8 7 7 7 6 6 6 5 4 4 3 2 2 2 2 2 2 2 2 1 1 0 1 1 2 1 1 2 1 1 2 2
3 4 5 3 1 2 1 1 2 3 5 7 8 9 9 9 9 8 7 7 6 6 6 6 5 5 4 3 3 2 2 2 1 1 1 1 1 1 1 1 1 1 1 1 1 2 2 2 2
5 6 4 3 2 2 3 3 3 4 6 7 8 8 8 8 8 8 8 7 6 6 6 6 6 6 5 4 3 2 2 2 2 2 2 2 2 1 1 1 1 0 1 1 2 2 2 2 2
7 7 3 3 2 2 6 0 5 6 7 7 7 8 8 8 8 8 8 7 7 6 6 6 5 6 5 4 2 2 1 1 1 1 2 2 1 1 2 1 0 0 1 1 1 2 2 2 2
6 4 3 2 3 2 6 1 4 5 7 7 7 8 8 7 7 8 8 8 7 6 6 6 5 5 5 4 3 2 1 1 1 1 1 1 2 2 2 1 1 1 1 1 2 0 2 2 2
4 5 5 3 2 4 6 3 3 5 6 7 7 8 7 8 8 8 8 7 7 6 6 6 6 5 5 4 3 2 2 2 2 1 1 1 2 2 2 1 1 2 1 1 1 1 2 2 2
8 8 7 4 1 5 6 5 2 4 6 6 7 8 8 8 8 8 8 7 7 6 6 6 6 6 4 3 3 3 2 2 2 2 1 2 2 1 2 2 1 1 1 1 2 2 2 2 2
9 10 8 4 2 5 5 6 3 4 5 5 6 7 8 9 9 9 8 8 7 7 7 7 7 6 6 4 3 2 2 2 2 1 1 2 2 2 2 2 2 1 1 1 2 2 3 2 2
10 9 8 6 4 6 7 7 5 5 5 5 6 7 7 8 9 9 9 8 8 8 8 7 7 7 6 5 4 3 2 2 2 2 1 2 2 2 1 1 2 1 2 1 2 2 3 3 2
9 6 8 7 8 5 6 6 4 5 6 6 6 7 7 8 8 9 9 9 8 8 8 7 7 7 6 6 5 5 3 2 2 2 1 2 2 2 2 2 2 2 2 1 3 1 2 3 3
7 5 7 9 10 9 7 8 3 5 6 6 6 6 7 8 8 9 9 9 8 8 7 7 6 6 5 5 5 4 3 2 2 1 1 2 2 2 2 2 2 2 2 2 2 2 3 3 3
6 7 8 9 10 10 7 8 5 3 4 4 5 6 7 7 8 8 7 7 7 7 7 7 7 6 6 6 5 4 3 3 2 2 1 2 2 2 2 2 2 3 2 2 3 3 3 3 3
10 9 7 8 8 7 5 7 4 1 1 2 4 5 6 7 8 8 8 8 7 7 7 7 7 7 7 6 6 5 5 4 4 3 2 3 2 2 1 2 2 2 2 3 3 3 3 3 3
10 11 9 9 8 6 6 7 1 0 1 2 3 4 5 7 7 8 8 8 8 8 7 8 7 7 7 6 6 5 5 4 3 3 3 3 2 2 1 2 2 2 2 2 2 3 2 2 2
10 10 9 11 11 10 6 5 4 3 4 4 4 5 5 6 7 7 7 7 7 8 8 7 7 7 6 6 5 5 4 4 3 3 3 2 2 2 1 2 2 2 2 2 3 2 2 2 3
10 9 8 9 9 10 9 8 4 5 5 4 4 5 5 6 7 7 7 7 7 7 7 7 7 6 6 5 4 4 4 4 3 3 3 3 3 2 2 3 2 2 2 2 3 2 1 2 2
9 9 8 8 9 11 9 4 2 1 2 4 4 4 5 6 6 6 6 6 7 7 8 8 7 7 6 5 4 4 3 3 3 3 3 3 3 3 3 2 2 2 2 2 2 2 2 2 2
8 9 10 9 8 10 10 4 3 2 2 3 3 4 5 5 5 5 6 6 6 6 6 6 6 5 5 5 4 4 3 3 3 3 2 2 2 2 2 2 2 2 2 2 2 3 3 3 3
Wind_Direction
189 191 207 233 235 179 58 50 44 56 58 55 48 36 35 29 18 56 82 101 104 115 119 129 120 126 136 133 131 132 133 132 131 132 136 139 142 141 142 143 145 146 148 151 154 155 153 153 153
176 180 222 239 278 63 64 54 50 49 68 88 83 71 68 65 55 86 109 110 119 118 120 113 113 120 128 131 131 130 131 131 130 131 135 139 139 137 140 144 147 147 148 153 158 162 157 155 158
177 216 257 260 31 41 48 50 58 68 78 64 75 60 47 60 78 89 101 126 124 116 116 110 118 122 127 128 127 127 129 129 130 131 132 136 138 139 144 146 146 149 152 157 161 161 162 166 171
203 223 234 277 58 49 37 40 54 82 81 70 90 89 80 59 72 95 118 131 127 122 121 115 125 124 125 126 127 131 135 133 130 129 129 132 135 139 146 145 146 150 158 164 167 167 167 176 183
235 251 228 86 61 55 46 45 35 57 66 81 91 95 92 82 91 112 129 135 128 124 120 120 126 126 127 128 131 133 133 131 127 126 128 129 131 134 139 142 147 155 161 164 167 171 182 185 187
239 246 356 57 62 61 61 61 58 57 80 94 112 110 95 107 114 122 127 128 124 124 122 121 131 131 132 131 130 128 127 129 128 128 130 128 124 128 132 138 147 156 164 173 181 187 192 187 192
283 322 25 44 59 63 58 48 32 54 77 84 97 108 115 127 123 127 128 127 120 123 127 132 139 145 149 141 134 130 130 131 133 134 139 140 141 142 137 149 157 160 173 177 187 196 204 205 208
288 286 36 47 44 58 63 56 34 27 72 91 130 108 125 136 139 138 132 124 122 127 134 136 132 138 152 148 143 139 136 133 139 146 150 165 177 172 168 179 156 166 186 199 189 193 207 213 220
261 276 32 31 28 50 59 54 62 74 111 117 92 60 105 132 146 145 139 134 132 133 135 141 138 146 151 141 139 154 152 153 167 164 165 195 194 173 176 128 138 183 198 197 194 203 211 220 214
263 345 29 17 10 18 18 8 73 144 134 135 125 111 126 142 153 153 150 147 143 146 147 144 142 149 148 144 141 157 156 150 169 147 173 184 170 194 196 139 175 196 203 204 202 210 216 229 216
279 338 1 360 0 352 350 10 24 207 125 116 140 142 148 155 160 160 155 148 141 151 151 148 143 149 154 147 143 140 149 153 165 160 183 184 208 184 192 179 178 195 207 216 194 218 229 233 243
274 315 320 331 334 317 331 5 78 325 43 75 129 147 157 165 168 167 159 156 149 156 156 151 148 151 157 150 144 160 161 164 166 155 208 188 200 238 161 244 269 233 217 238 253 238 244 261 258
258 302 317 309 297 305 289 257 272 103 99 113 133 151 163 167 167 164 161 160 156 163 162 155 157 154 159 154 183 161 165 168 160 171 182 227 215 226 219 258 274 275 267 230 255 264 245 260 255
317 300 290 274 233 176 211 178 167 119 133 138 148 158 165 168 170 165 167 170 171 172 167 163 169 161 170 175 181 180 179 171 189 184 172 226 244 241 241 228 247 263 269 287 272 246 247 256 266
275 269 250 205 204 179 238 178 139 135 155 155 159 162 165 169 174 176 174 180 179 177 169 172 175 172 181 189 197 188 187 172 182 174 174 219 232 210 243 239 231 279 289 256 248 253 245 243 242
242 248 237 150 199 203 256 134 119 154 171 168 167 165 172 174 179 180 178 182 182 180 174 181 184 175 180 181 199 204 201 180 193 180 171 190 240 235 254 255 262 273 250 247 237 245 250 251 258
227 261 289 160 187 236 254 303 118 163 183 176 174 174 179 177 183 182 184 185 181 179 177 179 183 180 179 175 180 197 190 211 228 210 204 186 217 223 247 269 330 265 261 273 269 241 273 255 256
296 294 291 284 185 249 258 273 155 169 193 185 179 179 184 185 186 183 182 180 175 174 175 173 177 178 177 175 178 190 193 203 210 211 205 236 229 220 253 230 233 271 277 279 301 293 270 270 265
297 292 291 298 291 261 261 268 235 178 197 194 187 186 189 191 182 180 179 178 175 177 178 176 179 173 179 184 197 191 197 208 203 211 199 221 240 216 234 263 201 256 257 278 277 274 257 259 266
265 274 277 269 251 266 268 267 240 193 201 203 196 194 193 191 183 181 181 181 182 182 181 179 182 178 188 188 196 197 214 218 200 229 192 234 233 233 211 234 248 236 243 241 266 272 283 282 269
256 266 278 282 258 242 258 243 210 192 194 197 201 200 197 193 186 184 186 187 186 184 186 185 183 181 191 188 185 183 192 214 195 201 199 219 220 216 248 239 261 257 252 239 252 259 264 277 271
257 265 269 264 257 248 249 270 202 193 198 198 197 196 196 189 186 184 183 184 185 183 182 185 182 182 182 186 193 197 202 207 208 216 180 189 203 220 219 234 248 257 265 260 258 267 273 270 273
266 278 265 259 256 261 235 262 226 186 217 203 191 191 191 186 184 183 181 176 179 180 180 178 175 179 184 193 193 201 212 217 209 214 180 219 197 218 234 235 244 243 254 266 283 287 276 270 280
239 239 240 242 249 250 247 260 259 217 229 209 193 186 182 179 177 174 170 167 176 179 178 174 170 176 184 188 190 194 206 220 227 238 228 231 214 214 225 250 250 246 255 249 255 266 257 273 283
228 243 245 236 232 245 223 247 270 306 253 224 206 190 178 174 175 171 168 170 176 182 181 174 170 175 181 183 187 191 203 208 212 228 232 250 247 233 221 260 255 256 253 256 259 256 274 270 270
231 248 259 272 270 260 214 240 255 26 208 205 201 189 177 173 173 172 171 171 173 174 176 175 172 175 178 181 187 191 198 209 214 221 239 243 263 272 278 264 269 274 269 266 263 263 263 267 270
233 238 259 270 273 272 255 242 218 196 198 199 190 183 175 174 173 173 173 172 172 173 177 177 170 170 174 180 182 186 193 210 213 217 229 243 257 257 243 255 260 271 275 280 270 276 285 285 279
252 256 246 253 268 267 258 247 239 201 199 194 187 183 172 170 172 172 173 173 173 171 169 170 172 172 173 178 188 178 192 208 215 225 231 243 251 253 252 257 263 266 269 268 273 265 291 290 294
215 227 248 263 267 271 270 268 41 200 194 199 188 178 174 165 160 163 162 164 167 167 168 170 171 170 173 179 182 185 192 204 211 214 225 236 245 242 245 251 259 262 270 272 269 278 273 278 290
248 245 246 251 254 264 275 286 74 127 170 184 171 157 149 147 148 150 149 152 157 161 162 165 169 171 173 174 178 184 188 196 208 208 221 239 248 245 239 249 258 265 269 272 269 269 269 268 273